Lid_Strength_Index
-1 0 -0 1 7 6 8 7 5 6 6 4 3 4 5 4 5 7 1 -0 -0 -0 -1 -1 -1 -1 -2 -2 -2 -2 -2 -2 -2 -2 -2 -2 -2 -1 -1 -1 -1 -1 -1 -1 -1 -1 -1 -1 -1
1 2 1 3 8 9 8 6 7 5 4 3 3 4 4 5 3 2 1 -0 -0 -0 -1 -1 -1 -1 -1 -2 -2 -2 -2 -2 -2 -2 -2 -2 -1 -1 -1 -1 -1 -1 -1 -1 -1 -1 -1 -1 -1
-0 1 4 5 7 9 9 7 6 5 4 4 4 3 3 4 2 2 0 -0 -1 -1 -1 -1 -1 -1 -1 -1 -2 -2 -2 -2 -2 -2 -1 -1 -1 -1 -1 -1 -1 -1 -1 -1 -1 -1 -2 -1 -1
2 2 3 8 9 7 6 5 5 5 4 3 3 5 3 1 2 1 0 -0 -0 -0 -1 -1 -1 -1 -1 -1 -1 -2 -2 -2 -2 -2 -2 -1 -1 -2 -2 -1 -1 -1 -1 -1 -1 -2 -2 -1 -1
1 3 7 8 7 6 5 4 4 5 4 4 4 5 4 1 0 0 0 -0 0 -0 -1 -1 -1 -1 -1 -1 -1 -2 -1 -1 -2 -2 -2 -1 -2 -2 -2 -1 -1 -1 -1 -1 -2 -1 -2 -1 -2
4 4 8 9 7 5 5 4 4 4 4 4 4 4 3 1 1 0 0 0 -0 -0 -1 -1 -1 -1 -1 -1 -1 -1 -1 -1 -1 -2 -2 -2 -2 -1 -1 -1 -1 -1 -1 -1 -1 -1 -1 -1 -1
5 6 8 7 7 6 5 4 4 4 4 4 3 5 3 2 1 0 0 -0 -0 -1 -1 -1 -1 -1 -1 -1 -1 -1 -1 -1 -1 -1 -1 -1 -1 -1 -1 -1 -1 -1 -1 -1 -1 -1 -1 -1 -1
4 5 8 7 8 7 5 4 3 4 4 2 2 5 4 2 0 0 -0 -0 -0 -0 -0 -1 -1 -1 -1 -1 -1 -1 -1 -1 -1 -1 -1 -1 -1 -1 -1 -1 -2 -2 -1 -1 -1 -1 -1 -1 -2
3 7 9 8 7 6 4 5 3 3 4 3 3 3 2 1 0 1 1 0 0 0 -0 -1 -0 -1 -1 -1 -1 -1 -1 -1 -1 -1 -1 -1 -1 -2 -2 -2 -1 -1 -1 -1 -1 -1 -1 -1 -1
5 7 7 5 5 5 4 4 4 4 4 4 3 2 1 1 1 2 1 1 1 1 0 -0 -1 -1 -1 -1 -1 -1 -1 -1 -1 -2 -2 -1 -2 -2 -1 -2 -1 -1 -1 -1 -1 -1 -1 -1 -1
5 7 5 5 4 4 4 4 3 4 5 4 4 3 2 2 1 2 1 1 1 0 0 -0 -0 -1 -1 -0 -1 -1 -1 -1 -1 -2 -2 -2 -1 -2 -1 -1 -1 -1 -1 -1 -1 -1 -1 -1 -1
6 5 5 4 4 4 5 4 5 4 4 3 2 2 2 2 2 2 2 1 1 1 0 -0 -0 -0 -1 -0 -0 -1 -0 -0 -1 -1 -2 -1 -0 -1 -1 -1 -1 -1 -1 -1 -1 -1 -2 -1 -1
5 5 4 4 4 4 4 5 5 4 3 2 2 2 2 2 2 1 1 1 1 1 0 -0 -0 -0 -0 -0 -0 -0 -0 -0 -1 -1 -2 -1 -1 -1 -1 -1 -1 -1 -1 -1 -1 -1 -0 -0 -0
5 5 5 4 4 4 5 5 4 4 3 3 3 3 2 2 2 1 1 1 1 1 0 -0 -0 -0 -0 -0 -1 -0 -1 -1 -1 -1 -1 -2 -1 -1 -0 -0 -0 -0 -1 -1 -1 -0 -0 -0 -0
5 6 5 5 4 5 4 6 6 4 3 3 3 3 3 2 2 2 1 1 0 0 0 0 -0 -0 -0 -0 -0 -0 -0 -1 -0 -1 -2 -2 -2 -1 -1 -0 -0 -1 -2 -1 -0 -1 -0 -0 -0
6 6 9 6 5 4 5 9 5 3 4 4 3 3 3 3 2 1 1 1 0 0 0 -0 0 0 0 -0 -0 -0 -0 -1 -1 -1 -1 -1 -1 -1 -1 -0 -0 -1 -1 -1 -0 0 0 1 1
7 10 9 8 5 5 6 8 5 4 4 4 4 3 3 3 2 1 1 0 0 0 0 0 -0 0 0 -0 -0 -0 -1 -0 -1 -1 -1 -1 -1 -1 -0 -0 -0 -1 -0 -0 0 0 0 1 1
10 9 8 9 6 6 7 7 5 4 4 4 4 3 3 3 2 2 1 0 0 -0 -1 -0 0 -0 0 0 -0 -0 -0 -0 -1 -1 -1 -1 -1 -1 -0 -0 -0 -1 -0 0 0 0 1 0 1
8 8 8 7 6 6 7 7 6 4 4 4 4 4 3 3 2 1 1 1 1 0 0 0 0 0 1 1 1 1 1 0 -0 -0 -1 -1 -1 -1 -0 -0 -0 -0 0 0 -0 1 1 1 -0
8 9 9 7 6 7 7 7 6 5 5 4 4 4 3 3 3 2 1 1 1 1 1 1 1 1 1 1 0 0 0 0 -0 -0 -1 -1 -1 -1 -0 -0 -0 -0 0 0 0 0 1 1 -0
8 9 8 8 7 6 7 8 7 5 4 4 4 3 3 3 3 2 2 2 1 2 1 1 1 1 0 -0 0 -0 -0 -0 1 0 0 -0 -1 -1 -1 -0 -0 -0 -0 1 0 0 1 2 1
9 6 7 8 9 11 7 12 8 6 6 5 5 4 3 3 2 2 2 2 2 2 1 1 1 1 0 -0 0 0 1 2 0 -0 -0 -0 -1 -1 -1 -1 -0 -0 -0 0 0 -0 1 1 2
9 6 7 7 9 9 9 11 9 7 7 6 5 4 3 3 3 2 2 2 2 1 1 1 1 0 0 -0 -0 1 0 1 0 -0 -0 -0 -1 -1 -1 -1 -1 -0 -0 -1 -0 -0 0 0 1
6 7 7 7 8 12 9 10 10 8 7 6 5 4 3 3 3 2 2 2 2 1 1 1 1 1 0 -0 -0 0 0 1 1 1 1 0 -0 -0 -0 -1 -1 -1 -1 -0 -0 -0 -0 0 0
6 8 12 13 13 14 9 10 10 6 6 5 5 4 3 3 3 3 3 3 2 2 2 1 1 1 1 0 0 0 0 0 1 1 1 1 1 0 0 -1 -1 -1 -1 -0 -1 -0 -0 -0 1
8 8 11 16 14 12 9 11 9 5 5 5 4 4 3 4 3 3 3 3 3 2 2 1 2 1 1 1 0 0 0 1 1 1 1 1 0 0 -1 -1 -1 -0 -0 -0 -1 -0 -0 -0 -0
8 10 7 10 9 11 10 8 6 5 5 5 4 4 4 4 4 3 3 3 2 2 2 2 1 1 1 1 0 0 0 0 1 0 -0 1 -0 0 -0 -0 -0 -0 -0 -0 -0 -0 0 0 0
7 6 10 10 14 15 11 10 10 8 6 5 5 4 4 4 4 3 3 3 2 2 1 1 1 1 1 0 0 0 0 0 -0 -0 0 0 -0 -0 -0 -0 -0 -0 -0 -0 0 0 0 1 1
8 9 8 8 10 13 14 11 6 7 6 5 5 4 5 4 4 3 3 2 2 2 2 1 1 1 1 1 0 1 1 0 0 0 0 0 -0 -0 0 -0 0 0 0 0 0 0 1 1 1
6 8 8 11 12 10 10 11 6 5 5 5 4 4 4 4 3 3 3 3 2 2 2 2 1 1 1 0 0 0 0 0 0 1 0 -0 0 -0 -0 -0 0 1 1 0 1 1 1 1 2